Flag for Germany Weather past 2 weeks in Merseburg, Saxony-Anhalt, Germany

Now
82 °F

Sunny.


Feels Like: 81 °F
Forecast: 58 / 87 °F
Wind: 3 mph from Northwest

Location: Leipzig-Schkeuditz

Current Time: Aug 2, 2015 at 7:18:37 PM

Latest Report: Aug 2, 2015 at 6:50 PM


Visibility: 10 mi

Pressure: 30.09 "Hg

Humidity: 26%

Dew point: 45 °F

Location of MerseburgLocation

Historic Weather in Merseburg — Graph

°F

Merseburg temperature yesterday

Maximum temperature yesterday: 81 °F (at 3:50 PM)
Minimum temperature yesterday: 50 °F (at 4:50 AM)
Average temperature yesterday: 65 °F

Past Weeks' High & Low Weather Summary

 TemperatureHumidityPressure
High88 °F (Jul 22, 2:50 PM)100% (Jul 23, 1:50 AM)30.12 "Hg (Jul 23, 1:50 AM)
Low48 °F (Jul 31, 3:50 AM)25% (Aug 2, 4:50 PM)29.59 "Hg (Jul 25, 3:50 AM)
Average67 °F65%29.88 "Hg
* Reported Jul 18 6:20 PM — Aug 2 6:20 PM, Merseburg, Weather by CustomWeather, © 2015

Note: Actual official high and low records may vary slightly from our data, if they occured in-between our weather recording intervals... More about our weather records

Advertising

Merseburg weather history for previous 24 hours

 ConditionsComfort  
Time TempWeatherWind HumidityBarometerVisibility
6:20 PM
Sun, Aug 2
82 °FPassing clouds.5 mph28%30.09 "HgN/A
5:50 PM82 °FSunny.5 mph28%30.09 "Hg10 mi
5:20 PM84 °FPassing clouds.7 mph25%30.09 "HgN/A
4:50 PM84 °FPassing clouds.5 mph25%30.09 "HgN/A
4:20 PM82 °FSunny.6 mph26%30.09 "Hg10 mi
3:50 PM82 °FPassing clouds.5 mph26%30.09 "HgN/A
3:20 PM82 °FPassing clouds.6 mph26%30.09 "HgN/A
2:50 PM82 °FSunny.3 mph26%30.09 "Hg10 mi
2:20 PM82 °FPassing clouds.5 mph28%30.09 "HgN/A
1:50 PM81 °FPassing clouds.6 mph28%30.12 "HgN/A
1:20 PM81 °FSunny.6 mph28%30.12 "Hg10 mi
12:50 PM79 °FSunny.6 mph32%30.12 "Hg10 mi
12:20 PM79 °FSunny.8 mph34%30.12 "Hg10 mi
11:50 AM77 °FSunny.9 mph42%30.12 "Hg10 mi
11:20 AM77 °FSunny.9 mph42%30.12 "Hg10 mi
10:50 AM75 °FSunny.7 mph47%30.12 "Hg10 mi
10:20 AM73 °FSunny.8 mph50%30.09 "Hg10 mi
9:50 AM72 °FPassing clouds.6 mph53%30.09 "HgN/A
9:20 AM68 °FSunny.12 mph56%30.09 "Hg10 mi
8:50 AM66 °FSunny.9 mph60%30.09 "Hg10 mi
8:20 AM64 °FSunny.13 mph68%30.09 "Hg10 mi
7:50 AM61 °FSunny.8 mph72%30.07 "Hg10 mi
7:20 AM59 °FSunny.2 mph77%30.07 "Hg10 mi
6:50 AM57 °FSunny.5 mph82%30.07 "Hg10 mi
6:20 AM55 °FClear.3 mph82%30.04 "Hg10 mi
5:50 AM55 °FClear.2 mph82%30.04 "Hg10 mi
5:20 AM54 °FClear.1 mph88%30.04 "Hg10 mi
4:50 AM55 °FClear.3 mph82%30.04 "Hg10 mi
4:20 AM55 °FClear.3 mph82%30.04 "Hg10 mi
3:50 AM57 °FClear.3 mph77%30.04 "Hg10 mi
3:20 AM57 °FClear.3 mph77%30.01 "Hg10 mi
2:20 AM61 °FClear.2 mph68%30.01 "Hg10 mi
1:50 AM61 °FClear.3 mph72%30.01 "Hg10 mi
1:20 AM63 °FClear.5 mph68%30.01 "Hg10 mi
12:50 AM64 °FClear.6 mph64%30.01 "Hg10 mi
12:20 AM64 °FClear.6 mph60%30.01 "Hg10 mi
11:20 PM
Sat, Aug 1
66 °FClear.6 mph56%30.01 "Hg10 mi
10:20 PM68 °FClear.7 mph53%30.01 "Hg10 mi
9:50 PM70 °FSunny.7 mph53%29.98 "Hg10 mi
9:20 PM70 °FSunny.6 mph50%29.98 "Hg10 mi
8:50 PM72 °FSunny.6 mph47%29.98 "Hg10 mi
8:20 PM73 °FSunny.8 mph44%29.98 "Hg10 mi
7:50 PM77 °FSunny.10 mph36%29.95 "Hg10 mi
7:20 PM79 °FSunny.6 mph32%29.95 "Hg10 mi
Weather by CustomWeather, © 2015

See weather overviewHow to use our weather pages